Simultaneous Nadir Overpasses (SNOs) Predictions

Prediction of SNOs between GOES-17 and FY3D Satellite Orbit:

Table of predicted SNOs for the next 14.0 days since TLE Epoch: 2/3/2024
Index Date Time (GOES-17) GOES-17 Lat,Lon FY3D Lat,Lon Distance(km) Time Diff (sec)
1 02/04/2024 09:35:58 0.03,-104.70 0.79,-108.19 397.54 80
2 02/05/2024 09:14:49 0.03,-104.70 -0.17,-103.70 113.22 80
3 02/07/2024 21:21:21 -0.04,-104.67 -0.03,-104.59 8.71 80
4 02/10/2024 09:25:04 0.05,-104.70 0.20,-105.45 85.92 80
5 02/11/2024 09:03:56 0.04,-104.70 -0.83,-100.98 424.84 80
6 02/12/2024 21:28:55 -0.05,-104.67 -0.43,-106.34 190.00 80
7 02/13/2024 21:07:47 -0.04,-104.67 0.60,-101.86 321.02 80
8 02/15/2024 09:32:39 0.05,-104.71 0.59,-107.20 283.70 80
9 02/16/2024 09:11:30 0.05,-104.71 -0.38,-102.71 227.18 80
